QPF
0.04 0.04 0.02 0.02 0.02 0.02 0.02 0.02 0.02 0.03 0.02 0.01 0.01 0.01 0.01 0.00 0.00 0.00 0.00 0.00 0.01 0.02 0.01 0.01 0.01 0.01 0.02 0.03 0.05 0.05 0.05 0.04 0.03 0.01 0.01 0.01 0.01 0.01 0.01 0.01 0.00 0.00 0.00
0.04 0.06 0.05 0.03 0.02 0.02 0.02 0.04 0.03 0.02 0.02 0.02 0.01 0.01 0.01 0.01 0.00 0.00 0.00 0.00 0.01 0.01 0.01 0.01 0.01 0.01 0.02 0.02 0.03 0.04 0.04 0.03 0.02 0.01 0.01 0.01 0.01 0.01 0.01 0.01 0.01 0.01 0.01
0.04 0.06 0.07 0.06 0.04 0.03 0.01 0.03 0.04 0.02 0.02 0.02 0.02 0.01 0.01 0.00 0.00 0.00 0.00 0.00 0.01 0.01 0.01 0.01 0.01 0.01 0.01 0.02 0.02 0.02 0.04 0.05 0.04 0.03 0.02 0.02 0.02 0.02 0.01 0.02 0.01 0.01 0.01
0.04 0.06 0.08 0.07 0.06 0.05 0.02 0.02 0.04 0.04 0.02 0.01 0.01 0.02 0.02 0.01 0.01 0.00 0.01 0.01 0.00 0.00 0.00 0.00 0.00 0.01 0.01 0.01 0.01 0.02 0.03 0.05 0.07 0.07 0.06 0.05 0.04 0.03 0.02 0.02 0.01 0.01 0.02
0.02 0.06 0.09 0.10 0.09 0.07 0.04 0.02 0.03 0.04 0.04 0.02 0.01 0.02 0.02 0.01 0.01 0.01 0.01 0.01 0.01 0.01 0.00 0.00 0.00 0.00 0.00 0.01 0.01 0.02 0.02 0.03 0.04 0.05 0.06 0.06 0.06 0.05 0.04 0.03 0.02 0.01 0.02
0.01 0.03 0.07 0.11 0.10 0.09 0.07 0.03 0.02 0.02 0.03 0.03 0.02 0.02 0.01 0.01 0.01 0.02 0.02 0.01 0.01 0.01 0.01 0.00 0.00 0.01 0.01 0.01 0.01 0.01 0.01 0.02 0.02 0.02 0.04 0.04 0.04 0.04 0.04 0.04 0.03 0.02 0.02
0.01 0.02 0.04 0.09 0.13 0.11 0.08 0.04 0.03 0.02 0.01 0.02 0.02 0.02 0.01 0.01 0.01 0.01 0.01 0.02 0.02 0.02 0.01 0.01 0.00 0.00 0.01 0.01 0.01 0.01 0.01 0.01 0.01 0.02 0.02 0.02 0.03 0.03 0.03 0.03 0.03 0.03 0.02
0.02 0.02 0.03 0.05 0.12 0.17 0.12 0.06 0.03 0.02 0.02 0.01 0.01 0.01 0.01 0.01 0.02 0.01 0.01 0.02 0.02 0.02 0.02 0.02 0.01 0.00 0.00 0.00 0.00 0.00 0.01 0.01 0.01 0.01 0.01 0.02 0.02 0.02 0.03 0.03 0.03 0.03 0.03
0.03 0.02 0.02 0.04 0.07 0.15 0.20 0.16 0.07 0.03 0.02 0.02 0.01 0.01 0.01 0.01 0.01 0.02 0.02 0.01 0.01 0.01 0.02 0.02 0.02 0.01 0.00 0.00 0.00 0.00 0.00 0.01 0.01 0.01 0.01 0.01 0.02 0.02 0.02 0.02 0.02 0.02 0.02
0.05 0.04 0.04 0.05 0.06 0.09 0.16 0.20 0.19 0.10 0.04 0.03 0.02 0.01 0.00 0.00 0.00 0.01 0.02 0.02 0.01 0.01 0.01 0.01 0.01 0.02 0.01 0.00 0.00 0.00 0.00 0.00 0.01 0.01 0.01 0.01 0.02 0.02 0.02 0.02 0.02 0.02 0.02
0.07 0.06 0.05 0.06 0.06 0.07 0.11 0.15 0.16 0.14 0.10 0.06 0.03 0.02 0.01 0.00 0.00 0.01 0.02 0.02 0.02 0.02 0.01 0.01 0.01 0.01 0.01 0.00 0.00 0.00 0.00 0.00 0.00 0.01 0.01 0.02 0.02 0.02 0.02 0.03 0.03 0.03 0.03
0.11 0.10 0.07 0.05 0.06 0.06 0.07 0.10 0.12 0.12 0.11 0.09 0.07 0.04 0.02 0.01 0.00 0.00 0.01 0.02 0.02 0.03 0.02 0.02 0.01 0.01 0.00 0.00 0.00 0.00 0.00 0.00 0.00 0.01 0.01 0.02 0.02 0.02 0.02 0.03 0.03 0.03 0.03
0.10 0.13 0.09 0.07 0.06 0.05 0.04 0.05 0.07 0.08 0.09 0.09 0.08 0.07 0.05 0.02 0.01 0.01 0.01 0.01 0.02 0.03 0.04 0.04 0.02 0.01 0.01 0.00 0.00 0.00 0.00 0.00 0.00 0.00 0.01 0.01 0.02 0.02 0.02 0.02 0.03 0.03 0.03
0.07 0.10 0.09 0.08 0.07 0.05 0.04 0.03 0.03 0.04 0.06 0.06 0.06 0.06 0.05 0.04 0.03 0.01 0.01 0.01 0.01 0.02 0.04 0.05 0.05 0.03 0.02 0.01 0.01 0.00 0.00 0.00 0.00 0.01 0.01 0.01 0.01 0.01 0.02 0.02 0.03 0.03 0.03
0.04 0.07 0.07 0.06 0.06 0.06 0.06 0.04 0.02 0.02 0.03 0.04 0.04 0.04 0.03 0.03 0.03 0.02 0.02 0.02 0.01 0.02 0.02 0.03 0.05 0.05 0.04 0.02 0.01 0.01 0.01 0.01 0.01 0.01 0.01 0.01 0.01 0.01 0.01 0.01 0.02 0.02 0.03
0.03 0.04 0.05 0.04 0.04 0.05 0.04 0.04 0.04 0.03 0.03 0.04 0.04 0.04 0.04 0.02 0.02 0.02 0.02 0.02 0.02 0.02 0.02 0.02 0.02 0.03 0.04 0.04 0.02 0.01 0.01 0.01 0.01 0.01 0.01 0.01 0.01 0.01 0.01 0.01 0.01 0.01 0.02
0.03 0.04 0.04 0.04 0.03 0.03 0.03 0.03 0.03 0.03 0.03 0.04 0.04 0.04 0.04 0.02 0.02 0.01 0.01 0.02 0.01 0.01 0.02 0.02 0.01 0.02 0.02 0.02 0.02 0.01 0.01 0.01 0.01 0.01 0.01 0.01 0.01 0.01 0.01 0.02 0.02 0.01 0.01
0.04 0.04 0.04 0.04 0.04 0.03 0.03 0.03 0.02 0.02 0.02 0.03 0.04 0.04 0.03 0.02 0.02 0.02 0.02 0.01 0.01 0.01 0.01 0.02 0.02 0.02 0.02 0.02 0.01 0.01 0.01 0.01 0.00 0.00 0.00 0.01 0.01 0.01 0.01 0.02 0.02 0.02 0.02
0.04 0.03 0.03 0.03 0.04 0.03 0.03 0.02 0.02 0.02 0.02 0.02 0.03 0.04 0.03 0.03 0.02 0.02 0.03 0.03 0.02 0.02 0.01 0.02 0.02 0.01 0.02 0.02 0.01 0.01 0.01 0.01 0.00 0.00 0.00 0.01 0.01 0.01 0.01 0.02 0.02 0.02 0.02
0.02 0.02 0.01 0.01 0.02 0.02 0.02 0.02 0.02 0.02 0.02 0.02 0.03 0.04 0.03 0.03 0.02 0.02 0.02 0.03 0.03 0.03 0.02 0.02 0.02 0.02 0.01 0.02 0.02 0.01 0.01 0.01 0.01 0.01 0.01 0.01 0.01 0.01 0.01 0.02 0.02 0.02 0.02
0.01 0.01 0.00 0.01 0.01 0.01 0.01 0.02 0.02 0.01 0.01 0.02 0.02 0.03 0.02 0.02 0.01 0.01 0.01 0.02 0.02 0.03 0.03 0.03 0.03 0.02 0.02 0.02 0.02 0.01 0.01 0.01 0.01 0.01 0.01 0.01 0.01 0.01 0.01 0.01 0.01 0.02 0.02
0.01 0.01 0.01 0.01 0.01 0.01 0.01 0.01 0.01 0.01 0.01 0.01 0.02 0.03 0.02 0.02 0.01 0.01 0.01 0.01 0.02 0.03 0.03 0.04 0.04 0.03 0.02 0.02 0.02 0.02 0.02 0.02 0.02 0.01 0.01 0.01 0.01 0.01 0.01 0.01 0.01 0.01 0.02
0.01 0.01 0.01 0.01 0.01 0.01 0.00 0.01 0.01 0.01 0.01 0.01 0.01 0.02 0.02 0.02 0.01 0.01 0.01 0.01 0.01 0.02 0.03 0.04 0.04 0.03 0.02 0.02 0.02 0.02 0.02 0.02 0.02 0.01 0.01 0.01 0.01 0.01 0.01 0.01 0.01 0.01 0.01
0.01 0.00 0.01 0.00 0.00 0.00 0.00 0.01 0.01 0.01 0.01 0.01 0.01 0.02 0.02 0.02 0.01 0.01 0.01 0.01 0.01 0.01 0.01 0.02 0.02 0.02 0.02 0.02 0.02 0.03 0.02 0.02 0.01 0.01 0.02 0.02 0.02 0.02 0.02 0.02 0.01 0.01 0.01
0.01 0.01 0.01 0.01 0.00 0.00 0.00 0.00 0.01 0.01 0.01 0.01 0.01 0.02 0.03 0.02 0.01 0.01 0.01 0.01 0.01 0.01 0.01 0.01 0.02 0.02 0.02 0.02 0.03 0.02 0.02 0.02 0.02 0.02 0.02 0.02 0.02 0.03 0.03 0.03 0.03 0.02 0.02
0.01 0.01 0.01 0.01 0.00 0.00 0.01 0.01 0.01 0.01 0.01 0.01 0.01 0.03 0.04 0.03 0.02 0.01 0.01 0.01 0.01 0.01 0.00 0.01 0.01 0.01 0.01 0.01 0.01 0.02 0.02 0.03 0.04 0.04 0.03 0.03 0.03 0.03 0.03 0.03 0.04 0.03 0.03
MSLP
1018.12 1018.36 1018.57 1018.76 1018.95 1019.16 1019.39 1019.65 1019.96 1020.29 1020.63 1020.97 1021.29 1021.57 1021.80 1021.98 1022.09 1022.15 1022.16 1022.14 1022.11 1022.08 1022.04 1022.03 1022.02 1022.02 1022.03 1022.02 1022.00 1021.96 1021.89 1021.79 1021.66 1021.52 1021.36 1021.19 1021.02 1020.84 1020.64 1020.42 1020.18 1019.92 1019.64
1018.07 1018.29 1018.51 1018.75 1019.00 1019.28 1019.60 1019.95 1020.32 1020.72 1021.12 1021.50 1021.85 1022.15 1022.39 1022.56 1022.66 1022.71 1022.71 1022.67 1022.63 1022.57 1022.53 1022.50 1022.49 1022.49 1022.49 1022.48 1022.45 1022.41 1022.34 1022.24 1022.12 1021.99 1021.84 1021.69 1021.53 1021.35 1021.16 1020.94 1020.70 1020.43 1020.14
1017.97 1018.19 1018.44 1018.72 1019.04 1019.40 1019.80 1020.23 1020.69 1021.15 1021.61 1022.04 1022.42 1022.75 1023.00 1023.18 1023.28 1023.31 1023.30 1023.24 1023.18 1023.11 1023.05 1023.01 1022.99 1022.98 1022.97 1022.96 1022.92 1022.86 1022.79 1022.68 1022.56 1022.44 1022.30 1022.16 1022.00 1021.84 1021.65 1021.44 1021.21 1020.95 1020.67
1017.90 1018.11 1018.38 1018.70 1019.08 1019.51 1019.99 1020.49 1021.01 1021.54 1022.05 1022.52 1022.95 1023.30 1023.57 1023.76 1023.87 1023.90 1023.88 1023.82 1023.74 1023.66 1023.59 1023.54 1023.51 1023.49 1023.48 1023.45 1023.40 1023.33 1023.23 1023.12 1022.99 1022.86 1022.72 1022.58 1022.44 1022.29 1022.12 1021.93 1021.71 1021.47 1021.20
1017.88 1018.09 1018.37 1018.72 1019.14 1019.61 1020.13 1020.68 1021.24 1021.81 1022.36 1022.87 1023.33 1023.72 1024.03 1024.24 1024.37 1024.42 1024.40 1024.34 1024.26 1024.18 1024.11 1024.06 1024.03 1024.00 1023.98 1023.94 1023.88 1023.79 1023.67 1023.54 1023.40 1023.25 1023.11 1022.97 1022.84 1022.70 1022.55 1022.38 1022.19 1021.97 1021.73
1017.92 1018.13 1018.41 1018.77 1019.19 1019.68 1020.20 1020.76 1021.34 1021.92 1022.49 1023.03 1023.52 1023.95 1024.29 1024.55 1024.71 1024.79 1024.80 1024.76 1024.70 1024.63 1024.58 1024.53 1024.51 1024.49 1024.46 1024.42 1024.35 1024.24 1024.11 1023.95 1023.79 1023.62 1023.47 1023.34 1023.21 1023.09 1022.96 1022.82 1022.65 1022.46 1022.24
1017.98 1018.20 1018.48 1018.83 1019.24 1019.70 1020.21 1020.74 1021.29 1021.86 1022.43 1022.98 1023.49 1023.96 1024.35 1024.65 1024.87 1025.00 1025.05 1025.05 1025.02 1024.98 1024.95 1024.93 1024.92 1024.92 1024.90 1024.86 1024.78 1024.67 1024.52 1024.35 1024.17 1024.00 1023.84 1023.70 1023.58 1023.47 1023.36 1023.24 1023.10 1022.93 1022.74
1018.04 1018.26 1018.55 1018.88 1019.26 1019.68 1020.14 1020.62 1021.13 1021.66 1022.20 1022.75 1023.28 1023.77 1024.20 1024.56 1024.84 1025.02 1025.13 1025.18 1025.20 1025.20 1025.20 1025.22 1025.24 1025.26 1025.26 1025.24 1025.17 1025.06 1024.91 1024.74 1024.55 1024.37 1024.21 1024.08 1023.97 1023.87 1023.78 1023.68 1023.56 1023.41 1023.23
1018.04 1018.29 1018.58 1018.90 1019.26 1019.63 1020.03 1020.45 1020.90 1021.37 1021.88 1022.41 1022.94 1023.45 1023.92 1024.33 1024.66 1024.90 1025.06 1025.17 1025.23 1025.28 1025.32 1025.38 1025.44 1025.49 1025.52 1025.52 1025.48 1025.39 1025.25 1025.09 1024.91 1024.74 1024.59 1024.47 1024.37 1024.29 1024.21 1024.13 1024.02 1023.88 1023.72
1017.95 1018.25 1018.56 1018.90 1019.23 1019.58 1019.92 1020.28 1020.67 1021.09 1021.55 1022.05 1022.57 1023.08 1023.58 1024.02 1024.39 1024.67 1024.89 1025.04 1025.15 1025.24 1025.32 1025.42 1025.51 1025.60 1025.67 1025.71 1025.70 1025.63 1025.52 1025.39 1025.23 1025.08 1024.95 1024.84 1024.76 1024.70 1024.64 1024.57 1024.48 1024.35 1024.19
1017.78 1018.14 1018.50 1018.86 1019.20 1019.53 1019.84 1020.16 1020.50 1020.87 1021.28 1021.75 1022.24 1022.75 1023.25 1023.70 1024.09 1024.41 1024.65 1024.84 1024.98 1025.10 1025.22 1025.35 1025.48 1025.60 1025.71 1025.78 1025.80 1025.78 1025.71 1025.60 1025.48 1025.36 1025.26 1025.18 1025.12 1025.08 1025.04 1024.98 1024.90 1024.78 1024.63
1017.54 1017.97 1018.39 1018.80 1019.17 1019.50 1019.81 1020.10 1020.41 1020.74 1021.12 1021.55 1022.01 1022.50 1022.98 1023.43 1023.82 1024.15 1024.41 1024.61 1024.77 1024.92 1025.06 1025.21 1025.36 1025.52 1025.65 1025.75 1025.81 1025.82 1025.78 1025.71 1025.63 1025.54 1025.47 1025.42 1025.39 1025.37 1025.35 1025.31 1025.25 1025.15 1025.01
1017.26 1017.76 1018.24 1018.70 1019.11 1019.48 1019.80 1020.10 1020.39 1020.70 1021.05 1021.44 1021.88 1022.33 1022.79 1023.22 1023.60 1023.92 1024.18 1024.39 1024.56 1024.72 1024.87 1025.04 1025.21 1025.38 1025.53 1025.65 1025.73 1025.77 1025.76 1025.72 1025.66 1025.61 1025.57 1025.55 1025.54 1025.54 1025.54 1025.53 1025.48 1025.40 1025.29
1016.94 1017.50 1018.05 1018.56 1019.02 1019.43 1019.78 1020.09 1020.39 1020.70 1021.03 1021.40 1021.80 1022.23 1022.66 1023.07 1023.43 1023.74 1023.99 1024.20 1024.37 1024.54 1024.70 1024.87 1025.05 1025.23 1025.38 1025.51 1025.60 1025.65 1025.65 1025.63 1025.59 1025.56 1025.54 1025.53 1025.55 1025.57 1025.59 1025.59 1025.57 1025.52 1025.44
1016.60 1017.20 1017.79 1018.35 1018.85 1019.30 1019.69 1020.04 1020.36 1020.67 1021.00 1021.36 1021.74 1022.15 1022.55 1022.93 1023.28 1023.58 1023.83 1024.04 1024.23 1024.40 1024.57 1024.74 1024.92 1025.10 1025.25 1025.37 1025.46 1025.50 1025.51 1025.48 1025.45 1025.42 1025.40 1025.40 1025.42 1025.45 1025.49 1025.51 1025.52 1025.49 1025.45
1016.23 1016.84 1017.46 1018.04 1018.59 1019.08 1019.51 1019.89 1020.23 1020.57 1020.91 1021.26 1021.64 1022.03 1022.42 1022.79 1023.13 1023.43 1023.69 1023.91 1024.11 1024.30 1024.48 1024.66 1024.84 1025.01 1025.16 1025.27 1025.34 1025.36 1025.36 1025.32 1025.27 1025.23 1025.20 1025.20 1025.21 1025.24 1025.27 1025.31 1025.32 1025.33 1025.32
1015.81 1016.43 1017.04 1017.64 1018.21 1018.73 1019.20 1019.61 1019.99 1020.35 1020.71 1021.08 1021.45 1021.84 1022.23 1022.60 1022.95 1023.26 1023.53 1023.78 1024.01 1024.22 1024.42 1024.61 1024.80 1024.97 1025.10 1025.20 1025.25 1025.26 1025.24 1025.18 1025.11 1025.05 1025.00 1024.97 1024.96 1024.97 1024.99 1025.02 1025.05 1025.07 1025.08
1015.35 1015.95 1016.56 1017.16 1017.74 1018.29 1018.78 1019.23 1019.64 1020.03 1020.41 1020.79 1021.18 1021.57 1021.96 1022.34 1022.70 1023.04 1023.34 1023.62 1023.88 1024.12 1024.35 1024.56 1024.76 1024.93 1025.07 1025.16 1025.20 1025.20 1025.16 1025.09 1025.00 1024.91 1024.83 1024.77 1024.73 1024.71 1024.71 1024.72 1024.73 1024.75 1024.77
1014.84 1015.43 1016.03 1016.64 1017.22 1017.78 1018.30 1018.77 1019.21 1019.62 1020.02 1020.42 1020.81 1021.22 1021.62 1022.01 1022.39 1022.75 1023.09 1023.40 1023.69 1023.96 1024.22 1024.46 1024.67 1024.86 1025.00 1025.10 1025.15 1025.15 1025.11 1025.03 1024.93 1024.83 1024.72 1024.63 1024.56 1024.50 1024.46 1024.44 1024.43 1024.43 1024.45
1014.31 1014.89 1015.50 1016.10 1016.70 1017.27 1017.80 1018.30 1018.75 1019.18 1019.59 1019.99 1020.39 1020.80 1021.21 1021.61 1022.01 1022.39 1022.75 1023.08 1023.40 1023.71 1023.99 1024.25 1024.49 1024.70 1024.87 1024.99 1025.06 1025.08 1025.06 1025.00 1024.90 1024.80 1024.68 1024.57 1024.46 1024.36 1024.28 1024.22 1024.18 1024.15 1024.15
1013.79 1014.38 1015.00 1015.61 1016.22 1016.80 1017.34 1017.84 1018.30 1018.73 1019.13 1019.53 1019.93 1020.34 1020.75 1021.15 1021.56 1021.95 1022.32 1022.68 1023.02 1023.34 1023.64 1023.92 1024.18 1024.41 1024.61 1024.77 1024.88 1024.94 1024.96 1024.93 1024.87 1024.79 1024.68 1024.56 1024.43 1024.31 1024.19 1024.08 1024.00 1023.94 1023.90
1013.31 1013.93 1014.57 1015.20 1015.81 1016.39 1016.93 1017.42 1017.88 1018.29 1018.69 1019.08 1019.47 1019.86 1020.26 1020.66 1021.06 1021.45 1021.83 1022.19 1022.54 1022.87 1023.18 1023.47 1023.75 1024.00 1024.23 1024.43 1024.59 1024.71 1024.78 1024.82 1024.81 1024.76 1024.68 1024.57 1024.44 1024.30 1024.15 1024.02 1023.89 1023.80 1023.73
1012.92 1013.57 1014.22 1014.86 1015.48 1016.05 1016.58 1017.06 1017.49 1017.89 1018.26 1018.63 1019.00 1019.38 1019.77 1020.16 1020.56 1020.94 1021.31 1021.67 1022.01 1022.33 1022.64 1022.93 1023.22 1023.49 1023.74 1023.98 1024.19 1024.37 1024.52 1024.62 1024.68 1024.69 1024.65 1024.57 1024.46 1024.32 1024.16 1024.00 1023.85 1023.72 1023.63
1012.62 1013.30 1013.97 1014.61 1015.21 1015.77 1016.28 1016.73 1017.13 1017.51 1017.86 1018.21 1018.57 1018.94 1019.32 1019.70 1020.09 1020.47 1020.83 1021.17 1021.50 1021.80 1022.09 1022.38 1022.65 1022.93 1023.20 1023.47 1023.73 1023.97 1024.18 1024.36 1024.48 1024.56 1024.57 1024.54 1024.45 1024.32 1024.17 1024.00 1023.84 1023.70 1023.58
1012.43 1013.12 1013.78 1014.42 1015.00 1015.53 1016.00 1016.42 1016.80 1017.15 1017.49 1017.83 1018.18 1018.55 1018.93 1019.32 1019.71 1020.08 1020.44 1020.76 1021.07 1021.35 1021.62 1021.88 1022.14 1022.41 1022.68 1022.97 1023.26 1023.54 1023.81 1024.04 1024.23 1024.36 1024.44 1024.44 1024.40 1024.30 1024.16 1024.00 1023.83 1023.68 1023.55
1012.34 1013.02 1013.66 1014.26 1014.81 1015.30 1015.74 1016.13 1016.48 1016.82 1017.16 1017.51 1017.87 1018.25 1018.65 1019.05 1019.45 1019.82 1020.17 1020.49 1020.77 1021.03 1021.27 1021.50 1021.73 1021.98 1022.25 1022.54 1022.84 1023.14 1023.44 1023.71 1023.95 1024.13 1024.24 1024.30 1024.28 1024.21 1024.10 1023.95 1023.79 1023.64 1023.51
Thickness
5648 5649 5650 5651 5653 5653 5654 5655 5656 5656 5656 5656 5656 5655 5654 5654 5654 5654 5654 5654 5654 5653 5652 5652 5651 5650 5649 5648 5647 5646 5645 5644 5644 5643 5642 5642 5641 5640 5640 5640 5640 5639 5639
5639 5641 5642 5643 5644 5646 5647 5647 5648 5648 5648 5648 5648 5648 5647 5647 5647 5647 5647 5647 5646 5646 5645 5645 5644 5643 5642 5641 5640 5639 5638 5637 5637 5636 5636 5635 5635 5634 5633 5633 5633 5633 5633
5630 5631 5633 5635 5636 5638 5639 5639 5639 5640 5640 5640 5639 5640 5640 5639 5639 5639 5639 5639 5638 5638 5637 5637 5636 5635 5634 5633 5632 5631 5631 5630 5630 5629 5629 5628 5627 5627 5627 5626 5626 5625 5625
5621 5622 5624 5626 5627 5629 5630 5630 5631 5631 5631 5630 5630 5631 5631 5631 5631 5631 5631 5631 5630 5629 5629 5628 5628 5627 5626 5625 5624 5624 5623 5622 5622 5621 5621 5620 5620 5619 5620 5620 5619 5618 5618
5612 5613 5614 5616 5618 5619 5620 5622 5621 5622 5621 5621 5621 5622 5622 5622 5622 5623 5623 5622 5621 5621 5620 5619 5618 5618 5617 5616 5616 5616 5615 5614 5614 5613 5613 5612 5612 5612 5612 5612 5612 5611 5611
5603 5604 5605 5607 5608 5609 5610 5612 5612 5612 5611 5612 5612 5611 5612 5612 5613 5614 5614 5613 5613 5612 5611 5610 5609 5608 5608 5607 5607 5607 5607 5606 5605 5605 5605 5604 5604 5604 5604 5604 5604 5604 5603
5594 5595 5596 5597 5598 5600 5601 5602 5602 5602 5601 5602 5601 5599 5600 5601 5603 5603 5604 5604 5603 5603 5601 5601 5600 5599 5598 5598 5598 5598 5598 5597 5597 5597 5596 5596 5595 5596 5596 5596 5596 5596 5595
5585 5586 5587 5588 5589 5590 5591 5592 5593 5592 5591 5592 5592 5589 5587 5588 5591 5594 5594 5594 5593 5593 5592 5590 5590 5589 5589 5588 5588 5587 5588 5588 5588 5588 5587 5587 5586 5587 5587 5586 5587 5587 5586
5576 5577 5578 5579 5580 5581 5582 5582 5584 5584 5582 5582 5584 5584 5580 5579 5578 5581 5582 5583 5583 5582 5581 5581 5580 5580 5579 5578 5578 5577 5577 5577 5578 5578 5577 5577 5577 5577 5577 5577 5577 5577 5576
5568 5569 5569 5570 5571 5572 5573 5574 5574 5575 5574 5573 5573 5575 5575 5574 5570 5569 5571 5572 5572 5572 5571 5571 5570 5569 5569 5568 5568 5568 5567 5567 5567 5567 5567 5567 5567 5567 5567 5566 5566 5566 5566
5559 5559 5560 5561 5561 5562 5564 5565 5564 5564 5564 5565 5565 5565 5564 5563 5562 5561 5561 5561 5560 5561 5561 5561 5560 5559 5558 5557 5557 5557 5556 5556 5556 5556 5556 5556 5556 5556 5555 5555 5554 5554 5554
5549 5550 5550 5551 5552 5553 5554 5555 5555 5555 5555 5555 5556 5557 5557 5555 5553 5552 5550 5549 5550 5551 5551 5551 5550 5549 5548 5547 5546 5546 5545 5545 5544 5544 5544 5544 5544 5543 5543 5543 5543 5542 5543
5540 5540 5541 5541 5542 5543 5544 5545 5546 5546 5546 5546 5547 5547 5548 5547 5546 5544 5541 5539 5538 5540 5540 5541 5540 5539 5537 5536 5534 5533 5533 5532 5532 5531 5531 5531 5531 5530 5530 5530 5530 5530 5530
5531 5531 5532 5532 5533 5534 5535 5536 5536 5537 5537 5537 5538 5538 5537 5537 5536 5535 5533 5529 5527 5527 5528 5529 5528 5527 5525 5524 5523 5521 5520 5519 5519 5518 5518 5518 5518 5517 5517 5516 5517 5517 5517
5523 5523 5523 5524 5524 5525 5526 5526 5526 5526 5527 5528 5528 5527 5526 5526 5526 5525 5524 5521 5517 5515 5517 5517 5515 5515 5513 5511 5510 5508 5507 5506 5505 5505 5505 5505 5504 5503 5503 5503 5503 5503 5503
5516 5515 5515 5515 5515 5515 5516 5517 5517 5517 5517 5517 5517 5516 5516 5516 5516 5514 5513 5510 5508 5505 5505 5506 5503 5502 5499 5497 5496 5495 5494 5493 5492 5491 5491 5491 5490 5490 5489 5489 5489 5489 5489
5507 5506 5506 5506 5505 5506 5506 5507 5507 5507 5507 5507 5507 5506 5506 5505 5504 5503 5501 5499 5496 5493 5491 5493 5491 5489 5487 5484 5483 5481 5480 5479 5478 5478 5477 5477 5476 5476 5476 5476 5475 5475 5475
5499 5498 5498 5497 5497 5497 5497 5497 5497 5497 5497 5496 5496 5496 5494 5494 5493 5491 5489 5487 5484 5481 5478 5478 5479 5476 5474 5471 5469 5467 5465 5464 5464 5464 5463 5463 5463 5463 5463 5463 5462 5461 5461
5491 5490 5489 5489 5488 5487 5487 5487 5487 5486 5486 5486 5485 5484 5484 5483 5482 5479 5477 5475 5472 5470 5467 5464 5465 5463 5460 5457 5454 5453 5452 5451 5450 5450 5449 5449 5449 5449 5449 5449 5448 5448 5449
5482 5481 5480 5480 5479 5478 5478 5477 5476 5476 5475 5475 5474 5474 5473 5472 5470 5468 5466 5463 5460 5457 5454 5451 5450 5449 5447 5444 5440 5439 5439 5438 5437 5436 5436 5436 5436 5436 5436 5436 5436 5436 5436
5473 5472 5471 5470 5470 5469 5469 5468 5467 5466 5465 5465 5464 5463 5462 5461 5460 5457 5455 5451 5448 5444 5441 5438 5436 5435 5434 5431 5429 5427 5426 5425 5425 5424 5423 5424 5425 5425 5425 5425 5424 5424 5424
5463 5462 5461 5461 5460 5460 5460 5459 5458 5457 5455 5454 5453 5452 5451 5450 5449 5446 5443 5441 5438 5434 5431 5427 5425 5424 5423 5421 5419 5417 5414 5413 5414 5414 5411 5413 5413 5414 5414 5414 5414 5413 5413
5453 5452 5451 5450 5450 5450 5450 5450 5448 5446 5445 5444 5442 5441 5440 5439 5436 5433 5432 5430 5427 5424 5422 5419 5416 5415 5414 5412 5409 5407 5404 5402 5403 5402 5399 5402 5402 5403 5404 5404 5403 5403 5402
5443 5442 5441 5440 5440 5440 5440 5439 5438 5436 5434 5433 5431 5430 5429 5427 5425 5422 5420 5417 5415 5413 5411 5410 5408 5407 5406 5403 5400 5398 5396 5393 5392 5391 5389 5389 5392 5392 5395 5394 5393 5392 5392
5433 5432 5432 5431 5430 5430 5429 5428 5427 5425 5423 5422 5421 5420 5418 5416 5415 5412 5409 5406 5404 5403 5402 5401 5400 5398 5397 5395 5392 5389 5386 5383 5383 5383 5379 5377 5380 5381 5383 5384 5383 5382 5382
5424 5423 5422 5421 5420 5419 5419 5418 5417 5415 5414 5413 5411 5410 5408 5406 5405 5402 5398 5396 5394 5394 5392 5392 5390 5389 5387 5385 5383 5380 5377 5374 5372 5372 5372 5368 5368 5366 5370 5374 5372 5371 5372